[[{"header":{"parameterUnit":"m.s-1","parameterCategory":1,"la1":30.2991,"la2":30.254,"lo1":-89.0895,"lo2":-89.0444,"dy":0.0017,"dx":0.0017,"nx":28,"ny":28,"refTime":"2024-03-16T21:00:00:Z","depth":0,"parameterNumber":2,"parameterNumberName":"U-component_of_WINDS"},"data":[0,0,0,0,0,0,0,0,0,0,0,0,0,0,0,0,0,0,0,0,0,0,0,0,0,0,0,0,0,0,0,0,0,0,0,0,0,0,0,0,0,0,0,0,0,0,0,0,0,0,0,0,0,0,0,0,0,0,3.7325,3.7325,0,3.7374,3.7374,3.7375,3.7361,3.736,3.7359,3.7358,3.7408,3.741,3.7412,0,0,0,0,0,0,0,0,0,0,0,0,0,3.722,3.7222,3.7325,3.7325,3.7326,3.7374,3.7374,3.7375,3.7361,3.736,3.7359,3.7358,3.7407,3.741,3.7412,0,0,0,0,0,0,0,0,0,0,0,0,0,3.7267,3.7223,3.7324,3.7325,3.7325,3.7374,3.7374,3.7375,3.7361,3.736,3.7358,3.7357,3.7406,3.7409,3.7413,3.7464,0,0,3.7423,3.7424,0,0,0,0,0,0,0,0,3.7264,3.7271,3.7324,3.7325,3.7325,3.736,3.7356,3.7405,3.7362,3.7348,3.7358,3.7356,3.7393,3.7397,3.741,3.7466,3.7468,3.7423,3.7425,3.7427,3.7428,0,0,0,0,0,0,0,3.7261,3.7268,3.7344,3.7325,3.7326,3.7323,3.7328,3.7365,3.7378,3.7349,3.7348,3.7354,3.7393,3.7407,3.7411,3.7469,3.7423,3.7426,3.7428,3.743,3.7572,3.7573,0,0,0,0,0,0,3.7257,3.7266,3.7342,3.7345,3.729,3.7326,3.7331,3.735,3.7378,3.738,3.7355,3.7353,3.7401,3.7407,3.7412,3.7475,3.7427,3.743,3.7432,3.757,3.7572,3.7574,0,0,0,0,0,0,3.7255,3.7264,3.734,3.7306,3.7315,3.7329,3.735,3.7352,3.7365,3.7382,3.7385,3.7367,3.7401,3.7408,3.7452,3.7477,3.7431,3.7435,3.7568,3.7571,3.7573,3.76,0,0,0,0,0,0,3.7252,3.7263,3.7282,3.7306,3.7317,3.7378,3.7352,3.7354,3.7371,3.7369,3.7394,3.7396,3.74,3.7447,3.7455,3.7481,3.7437,3.7566,3.7569,3.7572,3.7597,3.7603,3.7609,0,0,0,0,0,3.7248,3.7287,3.7283,3.7293,3.7341,3.738,3.7386,3.7389,3.7373,3.7393,3.7405,3.7396,3.7473,3.7451,3.746,3.7487,3.7564,3.7568,3.7572,3.7594,3.7602,3.7609,0,0,0,0,0,0,3.7265,3.729,3.7286,3.7334,3.7355,3.7377,3.7402,3.7397,3.7423,3.742,3.7423,3.7429,3.7474,3.7485,3.746,3.7539,3.7516,3.7522,3.753,3.7538,3.7543,3.754,3.744,0,0,0,0,0,3.7275,3.7304,3.7324,3.7365,3.7376,3.7387,3.7404,3.7405,3.7427,3.7436,3.745,3.7472,3.7501,3.752,3.7548,3.7599,3.7605,3.7623,3.7628,3.7633,3.7638,3.7668,3.7676,3.7587,3.7587,3.7587,0,0,3.7294,3.7312,3.733,3.7369,3.7385,3.7416,3.7395,3.7427,3.7451,3.7441,3.7483,3.7495,3.7519,3.7568,3.759,3.7578,3.7664,3.7638,3.7642,3.7644,3.7673,3.7681,3.7689,3.759,3.7589,3.7589,0,0,3.7346,3.7361,3.7397,3.7415,3.7441,3.7448,3.7457,3.7481,3.7489,3.7532,3.7526,3.7553,3.7603,3.7622,3.7637,3.7699,3.7692,3.7708,3.7738,3.7767,3.7775,3.7781,3.7804,3.7812,3.7713,3.7713,3.7713,0,3.7366,3.7412,3.7417,3.7451,3.7469,3.7463,3.75,3.7517,3.755,3.7563,3.755,3.7614,3.763,3.7683,3.7699,3.7711,3.7722,3.7705,3.7773,3.778,3.7785,3.7807,3.7816,3.7715,3.7715,3.7715,3.7714,0,3.7437,3.747,3.7496,3.7529,3.7551,3.7586,3.7596,3.7617,3.7618,3.7627,3.7672,3.7692,3.7724,3.7737,3.7737,3.7791,3.7784,3.7772,3.7749,3.7796,3.7816,3.7825,3.7717,3.7717,3.7716,3.7716,0,0,3.7499,3.7536,3.7546,3.7562,3.7591,3.7616,3.7652,3.7685,3.7703,3.7727,3.7758,3.7802,3.7793,3.7811,3.7813,3.7838,3.7888,3.7824,3.7825,3.7836,3.795,3.7959,3.7968,3.7884,3.7886,3.7887,3.7949,0,3.7553,3.7617,3.7623,3.768,3.7711,3.7707,3.7739,3.7761,3.7771,3.7799,3.7811,3.7843,3.7827,3.7838,3.7863,3.7876,3.7911,3.7872,3.7913,3.7915,3.7907,3.7979,3.7988,3.8045,3.7957,3.7958,3.7959,0,3.7624,3.7652,3.7712,3.7739,3.7752,3.7781,3.7812,3.7839,3.7865,3.7871,3.7892,3.7892,3.793,3.7907,3.796,3.7934,3.7951,3.7961,3.7963,3.7967,3.7939,3.7985,3.8063,3.8072,3.7972,3.7971,3.797,0,3.7664,3.7716,3.7759,3.7773,3.7805,3.7826,3.784,3.7864,3.7884,3.7912,3.7925,3.7957,3.7974,3.8,3.8008,3.799,3.8062,3.8038,3.8069,3.8069,3.8083,3.8082,3.8166,3.8095,3.8095,3.8095,3.8095,0,3.7724,3.7761,3.7778,3.7805,3.7847,3.7855,3.7897,3.791,3.7932,3.7962,3.796,3.7989,3.7998,3.8029,3.8036,3.808,3.8088,3.8094,3.8096,3.8094,3.8094,3.8106,3.8102,3.8097,3.8097,3.8096,3.8096,0,3.7775,3.7787,3.7835,3.7862,3.787,3.79,3.7924,3.7951,3.7962,3.8,3.8009,3.8027,3.8063,3.8074,3.8117,3.8122,3.8174,3.8172,3.8165,3.8166,3.8196,3.8193,3.8289,3.8303,3.8223,3.8224,3.8224,0,3.7812,3.7841,3.7872,3.7893,3.7908,3.794,3.7961,3.7971,3.7993,3.8025,3.8048,3.8084,3.8113,3.817,3.8187,3.8221,3.8219,3.8251,3.8224,3.8223,3.8221,3.8219,3.8222,3.8256,3.8257,3.8257,3.8258,0,3.7877,3.7883,3.7913,3.7946,3.7971,3.7998,3.8023,3.804,3.8053,3.8078,3.8115,3.8138,3.8183,3.8219,3.8253,3.8269,3.8266,3.8266,3.8275,3.8274,3.8269,3.8273,3.8179,3.8264,3.8263,3.8263,3.8262,3.8262,3.7923,3.7949,3.7976,3.801,3.8031,3.8055,3.8082,3.8097,3.8128,3.8166,3.817,3.821,3.8237,3.8283,3.8301,3.8333,3.8324,3.8337,3.834,3.8343,3.8346,3.8265,3.8339,3.8339,3.8339,3.8339,3.8339,0,3.7988,3.8006,3.8038,3.8074,3.8102,3.8098,3.8126,3.815,3.8185,3.8211,3.824,3.8284,3.8319,3.834,3.8375,3.8397,3.8397,3.8406,3.8405,3.8409,3.8351,3.834,3.8406,3.8406,3.8406,3.8406,3.8406,3.8406,3.8026,3.807,3.8079,3.8135,3.8153,3.8192,3.8209,3.8232,3.8253,3.8302,3.8332,3.8345,3.8369,3.8407,3.844,3.8446,3.8459,3.8469,3.8474,3.8419,3.8412,3.8406,3.8396,3.8472,3.8472,3.8529,3.8529,3.8529]},{"header":{"parameterUnit":"m.s-1","parameterCategory":1,"la1":30.2991,"la2":30.254,"lo1":-89.0895,"lo2":-89.0444,"dy":0.0017,"dx":0.0017,"nx":28,"ny":28,"refTime":"2024-03-16T21:00:00:Z","depth":0,"parameterNumber":3,"parameterNumberName":"V-component_of_WINDS"},"data":[0,0,0,0,0,0,0,0,0,0,0,0,0,0,0,0,0,0,0,0,0,0,0,0,0,0,0,0,0,0,0,0,0,0,0,0,0,0,0,0,0,0,0,0,0,0,0,0,0,0,0,0,0,0,0,0,0,0,-7.147,-7.1471,0,-7.1544,-7.1544,-7.1545,-7.1508,-7.1506,-7.1504,-7.1502,-7.1574,-7.1577,-7.1581,0,0,0,0,0,0,0,0,0,0,0,0,0,-7.1294,-7.1297,-7.147,-7.1471,-7.1472,-7.1544,-7.1545,-7.1546,-7.1508,-7.1506,-7.1503,-7.1501,-7.1572,-7.1577,-7.1581,0,0,0,0,0,0,0,0,0,0,0,0,0,-7.1369,-7.1298,-7.1469,-7.1462,-7.1462,-7.1543,-7.1545,-7.1546,-7.1509,-7.1506,-7.1503,-7.15,-7.1571,-7.1576,-7.1582,-7.1674,0,0,-7.1599,-7.1601,0,0,0,0,0,0,0,0,-7.1365,-7.1375,-7.1462,-7.1462,-7.1462,-7.1514,-7.1509,-7.1589,-7.1509,-7.1491,-7.1502,-7.1499,-7.1556,-7.1562,-7.1582,-7.1678,-7.1681,-7.1599,-7.1603,-7.1605,-7.1607,0,0,0,0,0,0,0,-7.136,-7.1372,-7.1499,-7.1463,-7.1464,-7.1454,-7.1461,-7.1524,-7.1538,-7.1492,-7.1489,-7.1499,-7.1555,-7.1577,-7.1584,-7.1682,-7.1599,-7.1604,-7.1608,-7.161,-7.1858,-7.1861,0,0,0,0,0,0,-7.1355,-7.1368,-7.1496,-7.1501,-7.1406,-7.1459,-7.1468,-7.15,-7.1538,-7.1541,-7.1501,-7.1497,-7.1569,-7.1577,-7.1586,-7.1698,-7.1605,-7.161,-7.1613,-7.1855,-7.1859,-7.1862,0,0,0,0,0,0,-7.1351,-7.1367,-7.1493,-7.1434,-7.1449,-7.1465,-7.1502,-7.1503,-7.1525,-7.1545,-7.1547,-7.1521,-7.1567,-7.1578,-7.1653,-7.17,-7.1613,-7.1618,-7.1851,-7.1856,-7.1861,-7.1922,0,0,0,0,0,0,-7.1347,-7.1366,-7.1402,-7.1435,-7.1453,-7.156,-7.1505,-7.1507,-7.1535,-7.153,-7.1564,-7.1567,-7.1566,-7.1645,-7.1659,-7.1706,-7.1622,-7.1847,-7.1853,-7.1859,-7.1916,-7.1928,-7.1939,0,0,0,0,0,-7.134,-7.1414,-7.1404,-7.1419,-7.1498,-7.1563,-7.1573,-7.1571,-7.1539,-7.1575,-7.1588,-7.1566,-7.1693,-7.1653,-7.1668,-7.1718,-7.1844,-7.1851,-7.1859,-7.191,-7.1926,-7.1939,0,0,0,0,0,0,-7.1384,-7.1419,-7.1407,-7.1494,-7.1526,-7.1557,-7.1601,-7.1587,-7.1628,-7.1621,-7.1617,-7.1625,-7.1703,-7.1718,-7.1673,-7.181,-7.1763,-7.1774,-7.1797,-7.1812,-7.1824,-7.1818,-7.1627,0,0,0,0,0,-7.1404,-7.1455,-7.1482,-7.1556,-7.1574,-7.1585,-7.1613,-7.161,-7.1642,-7.1655,-7.1673,-7.1705,-7.1752,-7.1783,-7.1827,-7.1918,-7.1925,-7.1959,-7.1971,-7.198,-7.199,-7.204,-7.2056,-7.1886,-7.1886,-7.1886,0,0,-7.1445,-7.147,-7.1503,-7.1566,-7.159,-7.1643,-7.1596,-7.1653,-7.1692,-7.1663,-7.1736,-7.1751,-7.1785,-7.1869,-7.1907,-7.1884,-7.2038,-7.199,-7.1997,-7.2001,-7.2049,-7.2065,-7.2079,-7.1891,-7.1891,-7.189,0,0,-7.1547,-7.1572,-7.1637,-7.1663,-7.1702,-7.1709,-7.1725,-7.1759,-7.1768,-7.1841,-7.1821,-7.1867,-7.1948,-7.1974,-7.1998,-7.2113,-7.2094,-7.2127,-7.2188,-7.2237,-7.225,-7.2262,-7.2304,-7.2319,-7.2136,-7.2137,-7.2137,0,-7.1593,-7.1673,-7.1672,-7.1732,-7.1761,-7.1739,-7.1805,-7.183,-7.188,-7.1901,-7.1875,-7.1978,-7.1999,-7.2089,-7.2118,-7.2138,-7.2156,-7.2123,-7.2249,-7.2261,-7.2271,-7.2311,-7.2327,-7.2141,-7.214,-7.214,-7.2139,0,-7.1728,-7.1784,-7.1832,-7.1884,-7.1918,-7.198,-7.1989,-7.2023,-7.2017,-7.2028,-7.2103,-7.2129,-7.2179,-7.22,-7.2194,-7.229,-7.2275,-7.2249,-7.2202,-7.2292,-7.2329,-7.2344,-7.2146,-7.2145,-7.2143,-7.2143,0,0,-7.1857,-7.1911,-7.1928,-7.1952,-7.1994,-7.2037,-7.2099,-7.215,-7.218,-7.2216,-7.2268,-7.2338,-7.2315,-7.2342,-7.2339,-7.2382,-7.2473,-7.2351,-7.2352,-7.2374,-7.2582,-7.2601,-7.2619,-7.2462,-7.2465,-7.2467,-7.2579,0,-7.1963,-7.2073,-7.2076,-7.2176,-7.2228,-7.221,-7.2264,-7.2295,-7.2307,-7.2352,-7.2364,-7.2415,-7.2381,-7.2397,-7.2439,-7.2453,-7.2515,-7.2445,-7.2509,-7.2512,-7.2501,-7.2638,-7.2658,-7.2763,-7.2594,-7.2596,-7.2598,0,-7.2101,-7.2144,-7.2251,-7.2287,-7.2309,-7.2358,-7.2406,-7.2449,-7.2485,-7.249,-7.2522,-7.2513,-7.2576,-7.2528,-7.2615,-7.2567,-7.2594,-7.2605,-7.2609,-7.2614,-7.256,-7.2648,-7.2797,-7.2812,-7.2621,-7.2619,-7.2617,0,-7.2186,-7.227,-7.2345,-7.2366,-7.2411,-7.2446,-7.2466,-7.2499,-7.253,-7.2571,-7.2591,-7.2639,-7.2665,-7.2702,-7.2706,-7.267,-7.2794,-7.2745,-7.28,-7.28,-7.2826,-7.2824,-7.2981,-7.2843,-7.2843,-7.2843,-7.2842,0,-7.2303,-7.2369,-7.2385,-7.2431,-7.2504,-7.2507,-7.2579,-7.2596,-7.2626,-7.2675,-7.2661,-7.2707,-7.2709,-7.2756,-7.276,-7.2832,-7.2843,-7.2849,-7.2849,-7.2851,-7.285,-7.2868,-7.286,-7.2847,-7.2846,-7.2845,-7.2844,0,-7.241,-7.2423,-7.2504,-7.2541,-7.2551,-7.2604,-7.2635,-7.2679,-7.2691,-7.2753,-7.2767,-7.2785,-7.284,-7.2848,-7.2911,-7.2914,-7.3,-7.2992,-7.2989,-7.2988,-7.3042,-7.3037,-7.3216,-7.3239,-7.3086,-7.3087,-7.3088,0,-7.2484,-7.2535,-7.2578,-7.2611,-7.2634,-7.2686,-7.2719,-7.2723,-7.2757,-7.2803,-7.2842,-7.2896,-7.2939,-7.3028,-7.3045,-7.3094,-7.3088,-7.3147,-7.3095,-7.3095,-7.3089,-7.3086,-7.3092,-7.3157,-7.3159,-7.316,-7.3161,0,-7.2615,-7.262,-7.2668,-7.2719,-7.2759,-7.2799,-7.2837,-7.2864,-7.2874,-7.2913,-7.297,-7.3004,-7.3071,-7.3124,-7.3173,-7.3193,-7.3179,-7.3178,-7.3193,-7.3195,-7.3191,-7.3194,-7.3016,-7.3173,-7.3172,-7.3171,-7.3171,-7.317,-7.2708,-7.2753,-7.2791,-7.2846,-7.2876,-7.2912,-7.2956,-7.2974,-7.3022,-7.3078,-7.3078,-7.3141,-7.3176,-7.3241,-7.3264,-7.3313,-7.3293,-7.3315,-7.3321,-7.3326,-7.3332,-7.3184,-7.3321,-7.3321,-7.3321,-7.3321,-7.332,0,-7.2838,-7.2863,-7.2914,-7.2968,-7.3012,-7.2997,-7.3039,-7.3075,-7.3132,-7.3167,-7.3211,-7.3277,-7.333,-7.3353,-7.3405,-7.3439,-7.3434,-7.3453,-7.345,-7.3455,-7.3346,-7.3328,-7.3456,-7.3456,-7.3456,-7.3456,-7.3456,-7.3456,-7.2911,-7.2988,-7.2997,-7.3088,-7.3111,-7.3175,-7.32,-7.3233,-7.3262,-7.3337,-7.3382,-7.3397,-7.3428,-7.3482,-7.353,-7.3535,-7.3555,-7.3576,-7.3579,-7.3476,-7.3462,-7.3449,-7.3432,-7.358,-7.3581,-7.3684,-7.3685,-7.3685]}]]